Weather History for Shelton, WA

Change the Weather History Date:

Friday, January 3, 2014

  Actual Average Record
Temperature  
Mean Temperature 36 °F -  
Max Temperature 46 °F 42 °F 55 °F (1984)
Min Temperature 26 °F 32 °F 10 °F (1950)
Degree Days  
Heating Degree Days 29    
Moisture  
Dew Point 30 °F    
Average Humidity 88    
Maximum Humidity 96    
Minimum Humidity 63    
Precipitation  
Precipitation 0.00 in - - ()
Sea Level Pressure  
Sea Level Pressure 30.25 in    
Wind  
Wind Speed 5 mph (West)    
Max Wind Speed 13 mph    
Max Gust Speed 22 mph    
Visibility 5 miles    
Events Fog    
Averages and records for this station are not official NWS values.
T = Trace of Precipitation, MM = Missing Value Source: NWS Daily Summary

Daily Weather History Graph

Daily Weather History Graph

Search for Another Location

Airport:

Trip Planner

Search our weather history database for the weather conditions in past years. The results will help you decide how hot, cold, wet, or windy it might be!

Date:

Astronomy

Jan. 03, 2014 Rise Set
Actual Time 7:59 AM PST 4:35 PM PST
Civil Twilight 7:23 AM PST 5:10 PM PST
Nautical Twilight 6:45 AM PST 5:49 PM PST
Astronomical Twilight 6:08 AM PST 6:26 PM PST
Moon 9:16 AM PST (1/3) 8:05 PM PST (1/3)
Length of Visible Light 9h 46m
Length of Day
8h 36m
Waxing Crescent, 8% of the Moon is Illuminated
Jan 3
Waxing Crescent
Jan 7
First Quarter
Jan 15
Full
Jan 23
Last Quarter
Jan 30
New

Hourly Weather History & Observations

Time (PST) Temp. Windchill Dew Point Humidity Pressure Visibility Wind Dir Wind Speed Gust Speed Precip Events Conditions
12:53 AM 39.9 °F 32.5 °F 36.0 °F 86% 30.01 in 10.0 mi WSW 12.7 mph 21.9 mph N/A   Clear
1:53 AM 37.9 °F 30.9 °F 34.0 °F 86% 30.05 in 10.0 mi WSW 10.4 mph - N/A   Clear
2:53 AM 36.0 °F 30.3 °F 32.0 °F 86% 30.10 in 10.0 mi WSW 6.9 mph - N/A   Clear
3:53 AM 35.1 °F 32.2 °F 33.1 °F 92% 30.12 in 10.0 mi WSW 3.5 mph - N/A   Clear
4:53 AM 34.0 °F 28.0 °F 32.0 °F 92% 30.13 in 10.0 mi WSW 6.9 mph - N/A   Clear
5:53 AM 35.1 °F 28.6 °F 33.1 °F 92% 30.14 in 10.0 mi WSW 8.1 mph - N/A   Clear
6:53 AM 35.1 °F 27.4 °F 32.0 °F 89% 30.12 in 10.0 mi WSW 10.4 mph - N/A   Clear
7:53 AM 35.1 °F 29.3 °F 30.9 °F 85% 30.13 in 10.0 mi West 6.9 mph - N/A   Clear
8:53 AM 34.0 °F 29.8 °F 30.9 °F 89% 30.16 in 10.0 mi NNW 4.6 mph - N/A   Clear
9:53 AM 37.0 °F 32.4 °F 30.9 °F 79% 30.17 in 10.0 mi West 5.8 mph - N/A   Clear
10:53 AM 41.0 °F 37.1 °F 36.0 °F 82% 30.20 in 10.0 mi NNW 5.8 mph - N/A   Clear
11:53 AM 43.0 °F - 36.0 °F 76% 30.20 in 10.0 mi Calm Calm - N/A   Clear
12:53 PM 45.0 °F 43.5 °F 36.0 °F 71% 30.19 in 10.0 mi SE 3.5 mph - N/A   Partly Cloudy
1:53 PM 46.9 °F - 35.1 °F 63% 30.19 in 10.0 mi Calm Calm - N/A   Partly Cloudy
2:50 PM 44.6 °F - 35.6 °F 71% 30.19 in 10.0 mi Calm Calm - N/A   Mostly Cloudy
2:53 PM 45.0 °F 42.6 °F 35.1 °F 68% 30.21 in 10.0 mi ENE 4.6 mph - N/A   Mostly Cloudy
3:20 PM 44.1 °F 40.1 °F 35.1 °F 71% 30.20 in 10.0 mi NE 6.9 mph - N/A   Scattered Clouds
3:53 PM 43.0 °F 41.3 °F 35.1 °F 74% 30.24 in 10.0 mi NE 3.5 mph - N/A   Mostly Cloudy
4:53 PM 42.1 °F - 36.0 °F 79% 30.26 in 10.0 mi Calm Calm - N/A   Overcast
5:53 PM 39.0 °F - 36.0 °F 89% 30.27 in 10.0 mi Calm Calm - N/A   Scattered Clouds
6:30 PM 35.1 °F - 33.1 °F 92% 30.25 in 1.8 mi Calm Calm - N/A   Clear
6:39 PM 34.0 °F - 33.1 °F 96% 30.25 in 0.5 mi Calm Calm - N/A Fog Fog
6:53 PM 34.0 °F - 33.1 °F 96% 30.28 in 0.5 mi Calm Calm - N/A Fog Fog
7:04 PM 33.1 °F - 32.0 °F 96% 30.26 in 1.0 mi Calm Calm - N/A   Mist
7:07 PM 33.1 °F - 30.9 °F 92% 30.26 in 2.0 mi Calm Calm - N/A   Partly Cloudy
7:12 PM 32.0 °F - 30.9 °F 96% 30.27 in 1.0 mi Calm Calm - N/A   Mist
7:14 PM 32.0 °F - 30.9 °F 96% 30.27 in 0.5 mi Calm Calm - N/A Fog Fog
7:49 PM 30.2 °F - 28.4 °F 93% 30.28 in 1.2 mi Calm Calm - N/A   Scattered Clouds
7:53 PM 30.9 °F - 28.9 °F 92% 30.31 in 1.2 mi Calm Calm - N/A   Scattered Clouds
7:56 PM 32.0 °F - 30.0 °F 92% 30.29 in 0.8 mi Calm Calm - N/A   Mist
8:00 PM 32.0 °F - 30.0 °F 92% 30.29 in 0.8 mi Calm Calm - N/A   Mist
8:43 PM 30.0 °F - 28.0 °F 92% 30.30 in 0.8 mi Calm Calm - N/A   Mist
8:49 PM 30.2 °F - 28.4 °F 93% 30.30 in 2.0 mi Calm Calm - N/A   Scattered Clouds
8:53 PM 28.9 °F - 28.0 °F 96% 30.32 in 2.0 mi Calm Calm - N/A   Scattered Clouds
8:58 PM 28.0 °F - 27.0 °F 96% 30.30 in 1.0 mi Calm Calm - N/A   Mist
9:06 PM 28.0 °F - 27.0 °F 96% 30.31 in 0.8 mi Calm Calm - N/A   Mist
9:12 PM 28.9 °F - 26.1 °F 89% 30.31 in 1.2 mi Calm Calm - N/A   Partly Cloudy
9:16 PM 28.9 °F - 26.1 °F 89% 30.31 in 3.0 mi Calm Calm - N/A   Partly Cloudy
9:24 PM 28.0 °F - 26.1 °F 92% 30.31 in 1.5 mi Calm Calm - N/A   Partly Cloudy
9:26 PM 28.9 °F - 27.0 °F 92% 30.31 in 0.8 mi Calm Calm - N/A   Mist
9:53 PM 28.0 °F - 26.1 °F 92% 30.35 in 0.8 mi Calm Calm - N/A   Mist
10:18 PM 28.0 °F - 27.0 °F 96% 30.32 in 2.0 mi Calm Calm - N/A   Overcast
10:26 PM 28.0 °F - 26.1 °F 92% 30.32 in 0.8 mi Calm Calm - N/A   Mist
10:53 PM 27.0 °F - 26.1 °F 96% 30.35 in 0.8 mi Calm Calm - N/A   Mist
11:13 PM 26.1 °F 21.9 °F 24.1 °F 92% 30.34 in 1.2 mi SW 3.5 mph - N/A   Scattered Clouds
11:16 PM 26.1 °F 21.9 °F 24.1 °F 92% 30.34 in 3.0 mi WSW 3.5 mph - N/A   Scattered Clouds
11:32 PM 26.1 °F - 24.1 °F 92% 30.35 in 2.0 mi Calm Calm - N/A   Mostly Cloudy
11:38 PM 27.0 °F - 25.0 °F 92% 30.35 in 0.8 mi Calm Calm - N/A   Mist
11:53 PM 26.1 °F - 24.1 °F 92% 30.37 in 0.5 mi Calm Calm - N/A Fog Light Freezing Fog